TimeCST,TemperatureF,Dew PointF,Humidity,Sea Level PressureIn,VisibilityMPH,Wind Direction,Wind SpeedMPH,Gust SpeedMPH,PrecipitationIn,Events,Conditions,WindDirDegrees,DateUTC
12:15 AM,50.0,35.6,58,30.14,10.0,WNW,3.5,-,N/A,,Clear,300,2012-11-07 06:15:00
12:35 AM,50.0,35.6,58,30.14,10.0,NNW,3.5,-,N/A,,Clear,340,2012-11-07 06:35:00
12:55 AM,50.0,35.6,58,30.14,10.0,NNW,3.5,-,N/A,,Clear,330,2012-11-07 06:55:00
1:15 AM,46.4,35.6,66,30.15,10.0,NW,5.8,-,N/A,,Clear,310,2012-11-07 07:15:00
1:35 AM,46.4,35.6,66,30.14,10.0,NNW,4.6,-,N/A,,Clear,340,2012-11-07 07:35:00
1:55 AM,46.4,35.6,66,30.15,10.0,West,8.1,-,N/A,,Clear,260,2012-11-07 07:55:00
2:15 AM,44.6,37.4,76,30.15,10.0,West,8.1,-,N/A,,Clear,270,2012-11-07 08:15:00
2:55 AM,44.6,37.4,76,30.16,10.0,NW,5.8,-,N/A,,Clear,310,2012-11-07 08:55:00
3:15 AM,44.6,35.6,71,30.15,10.0,NNW,5.8,-,N/A,,Clear,330,2012-11-07 09:15:00
3:35 AM,46.4,35.6,66,30.16,10.0,WNW,6.9,-,N/A,,Clear,290,2012-11-07 09:35:00
3:55 AM,42.8,35.6,76,30.17,10.0,West,8.1,-,N/A,,Clear,280,2012-11-07 09:55:00
4:15 AM,42.8,37.4,81,30.17,10.0,WNW,6.9,-,N/A,,Clear,290,2012-11-07 10:15:00
4:35 AM,46.4,35.6,66,30.17,10.0,NW,6.9,-,N/A,,Clear,320,2012-11-07 10:35:00
4:55 AM,44.6,35.6,71,30.17,10.0,NNW,6.9,-,N/A,,Clear,340,2012-11-07 10:55:00
5:15 AM,44.6,35.6,71,30.18,10.0,North,5.8,-,N/A,,Clear,360,2012-11-07 11:15:00
5:35 AM,42.8,35.6,76,30.18,10.0,North,5.8,-,N/A,,Clear,350,2012-11-07 11:35:00
5:55 AM,42.8,35.6,76,30.18,10.0,NNW,4.6,-,N/A,,Clear,330,2012-11-07 11:55:00
6:15 AM,42.8,35.6,76,30.18,10.0,North,5.8,-,N/A,,Clear,360,2012-11-07 12:15:00
6:35 AM,42.8,35.6,76,30.18,10.0,NNE,4.6,-,N/A,,Clear,20,2012-11-07 12:35:00
6:55 AM,41.0,35.6,81,30.18,10.0,North,5.8,-,N/A,,Clear,350,2012-11-07 12:55:00
7:15 AM,41.0,35.6,81,30.19,10.0,North,4.6,-,N/A,,Clear,360,2012-11-07 13:15:00
7:35 AM,42.8,35.6,76,30.19,10.0,NW,4.6,-,N/A,,Clear,320,2012-11-07 13:35:00
7:55 AM,46.4,37.4,71,30.20,10.0,West,3.5,-,N/A,,Clear,280,2012-11-07 13:55:00
8:15 AM,46.4,37.4,71,30.20,10.0,WNW,4.6,-,N/A,,Clear,300,2012-11-07 14:15:00
8:35 AM,51.8,37.4,58,30.22,10.0,WNW,3.5,-,N/A,,Clear,290,2012-11-07 14:35:00
8:55 AM,53.6,39.2,58,30.22,10.0,Calm,Calm,-,N/A,,Clear,0,2012-11-07 14:55:00
9:15 AM,55.4,37.4,51,30.21,10.0,Calm,Calm,-,N/A,,Clear,0,2012-11-07 15:15:00
9:35 AM,59.0,35.6,42,30.21,10.0,Calm,Calm,-,N/A,,Clear,0,2012-11-07 15:35:00
9:55 AM,59.0,35.6,42,30.21,10.0,Calm,Calm,-,N/A,,Clear,0,2012-11-07 15:55:00
10:15 AM,60.8,33.8,36,30.21,10.0,Calm,Calm,-,N/A,,Clear,0,2012-11-07 16:15:00
10:35 AM,62.6,32.0,32,30.21,10.0,Calm,Calm,-,N/A,,Clear,0,2012-11-07 16:35:00
10:55 AM,62.6,32.0,32,30.20,10.0,Calm,Calm,-,N/A,,Clear,0,2012-11-07 16:55:00
11:15 AM,64.4,33.8,32,30.20,10.0,Calm,Calm,-,N/A,,Clear,0,2012-11-07 17:15:00
11:35 AM,64.4,35.6,34,30.19,10.0,East,5.8,-,N/A,,Clear,80,2012-11-07 17:35:00
11:55 AM,66.2,33.8,30,30.18,10.0,East,5.8,-,N/A,,Clear,90,2012-11-07 17:55:00
12:15 PM,68.0,33.8,28,30.17,10.0,East,5.8,-,N/A,,Clear,80,2012-11-07 18:15:00
12:35 PM,68.0,33.8,28,30.15,10.0,East,4.6,-,N/A,,Clear,90,2012-11-07 18:35:00
12:55 PM,68.0,33.8,28,30.14,10.0,NE,4.6,-,N/A,,Clear,50,2012-11-07 18:55:00
1:15 PM,68.0,33.8,28,30.13,10.0,SE,3.5,-,N/A,,Clear,140,2012-11-07 19:15:00
1:35 PM,69.8,35.6,28,30.12,10.0,Calm,Calm,-,N/A,,Clear,0,2012-11-07 19:35:00
1:55 PM,68.0,35.6,30,30.12,10.0,East,3.5,-,N/A,,Clear,100,2012-11-07 19:55:00
2:15 PM,68.0,35.6,30,30.11,10.0,ENE,5.8,-,N/A,,Clear,70,2012-11-07 20:15:00
2:35 PM,69.8,35.6,28,30.11,7.0,Calm,Calm,-,N/A,,Clear,0,2012-11-07 20:35:00
2:55 PM,68.0,35.6,30,30.11,10.0,Calm,Calm,-,N/A,,Clear,0,2012-11-07 20:55:00
3:15 PM,69.8,37.4,31,30.10,10.0,SE,5.8,-,N/A,,Clear,140,2012-11-07 21:15:00
3:35 PM,69.8,35.6,28,30.10,10.0,SE,4.6,-,N/A,,Clear,130,2012-11-07 21:35:00
3:55 PM,69.8,35.6,28,30.09,10.0,ESE,4.6,-,N/A,,Clear,120,2012-11-07 21:55:00
4:15 PM,68.0,37.4,33,30.09,5.0,Calm,Calm,-,N/A,,Haze,0,2012-11-07 22:15:00
4:35 PM,68.0,37.4,33,30.08,10.0,ESE,4.6,-,N/A,,Clear,120,2012-11-07 22:35:00
4:55 PM,66.2,37.4,35,30.08,10.0,Calm,Calm,-,N/A,,Clear,0,2012-11-07 22:55:00
5:15 PM,64.4,37.4,37,30.08,10.0,SE,3.5,-,N/A,,Clear,130,2012-11-07 23:15:00
5:35 PM,62.6,35.6,37,30.08,10.0,SE,3.5,-,N/A,,Clear,140,2012-11-07 23:35:00
5:55 PM,60.8,35.6,39,30.08,7.0,SE,4.6,-,N/A,,Clear,130,2012-11-07 23:55:00
6:15 PM,60.8,35.6,39,30.09,10.0,SE,4.6,-,N/A,,Clear,130,2012-11-08 00:15:00
6:35 PM,59.0,35.6,42,30.08,10.0,SE,4.6,-,N/A,,Clear,130,2012-11-08 00:35:00
6:55 PM,59.0,35.6,42,30.08,10.0,SE,4.6,-,N/A,,Clear,130,2012-11-08 00:55:00
7:15 PM,57.2,35.6,44,30.08,10.0,SE,5.8,-,N/A,,Clear,130,2012-11-08 01:15:00
7:35 PM,55.4,35.6,47,30.08,10.0,ESE,5.8,-,N/A,,Clear,120,2012-11-08 01:35:00
7:55 PM,55.4,35.6,47,30.08,10.0,ESE,4.6,-,N/A,,Clear,120,2012-11-08 01:55:00
8:15 PM,53.6,35.6,51,30.08,10.0,SE,6.9,-,N/A,,Clear,130,2012-11-08 02:15:00
8:35 PM,53.6,35.6,51,30.08,10.0,SE,5.8,-,N/A,,Clear,130,2012-11-08 02:35:00
8:55 PM,53.6,35.6,51,30.09,10.0,ESE,5.8,-,N/A,,Clear,120,2012-11-08 02:55:00
9:15 PM,53.6,35.6,51,30.09,10.0,SE,5.8,-,N/A,,Clear,130,2012-11-08 03:15:00
9:35 PM,53.6,35.6,51,30.09,7.0,SE,5.8,-,N/A,,Clear,140,2012-11-08 03:35:00
9:55 PM,53.6,35.6,51,30.09,10.0,SE,6.9,-,N/A,,Clear,140,2012-11-08 03:55:00
10:15 PM,53.6,35.6,51,30.09,10.0,SE,6.9,-,N/A,,Clear,140,2012-11-08 04:15:00
10:35 PM,53.6,35.6,51,30.08,10.0,SE,8.1,-,N/A,,Clear,140,2012-11-08 04:35:00
10:55 PM,51.8,35.6,54,30.08,10.0,SE,8.1,-,N/A,,Clear,130,2012-11-08 04:55:00
11:15 PM,51.8,35.6,54,30.07,10.0,SE,6.9,-,N/A,,Clear,130,2012-11-08 05:15:00
11:35 PM,51.8,35.6,54,30.07,10.0,SE,6.9,-,N/A,,Clear,130,2012-11-08 05:35:00
11:55 PM,50.0,35.6,58,30.07,10.0,SE,6.9,-,N/A,,Clear,130,2012-11-08 05:55:00